| time (UTC) | temp F | wind direction | speed MPH | gust MPH | rain 1hr in | rain 24hr in | rain mn in | humidity % | barometer mb |
| 20260502205518 | 47 | 5 | 2.0 | 6.0 | 0.00 | 0.00 | 0.00 | 62 | 1016.2 |
| 20260502204519 | 48 | 336 | 3.0 | 7.0 | 0.00 | 0.00 | 0.00 | 61 | 1016.2 |
| 20260502203518 | 48 | 316 | 2.0 | 6.0 | 0.00 | 0.00 | 0.00 | 60 | 1016.2 |
| 20260502202519 | 47 | 334 | 2.0 | 7.0 | 0.00 | 0.00 | 0.00 | 62 | 1016.3 |
| 20260502201519 | 47 | 343 | 3.0 | 7.0 | 0.00 | 0.00 | 0.00 | 62 | 1016.4 |
| 20260502200519 | 48 | 335 | 3.0 | 7.0 | 0.00 | 0.00 | 0.00 | 62 | 1016.3 |
| 20260502195519 | 48 | 331 | 2.0 | 8.0 | 0.00 | 0.00 | 0.00 | 57 | 1016.2 |
| 20260502194516 | 49 | 332 | 2.0 | 5.0 | 0.00 | 0.00 | 0.00 | 56 | 1016.3 |
| 20260502193516 | 48 | 343 | 2.0 | 5.0 | 0.00 | 0.00 | 0.00 | 57 | 1016.4 |
| 20260502192520 | 48 | 321 | 2.0 | 9.0 | 0.00 | 0.00 | 0.00 | 58 | 1016.5 |
| 20260502191520 | 48 | 333 | 3.0 | 8.0 | 0.00 | 0.00 | 0.00 | 58 | 1016.6 |
| 20260502190520 | 49 | 337 | 3.0 | 9.0 | 0.00 | 0.00 | 0.00 | 57 | 1016.5 |
| 20260502185519 | 51 | 332 | 3.0 | 12.0 | 0.00 | 0.00 | 0.00 | 53 | 1016.4 |
| 20260502184517 | 50 | 329 | 2.0 | 6.0 | 0.00 | 0.00 | 0.00 | 53 | 1016.4 |
| 20260502183518 | 49 | 347 | 1.0 | 5.0 | 0.00 | 0.00 | 0.00 | 57 | 1016.6 |
| 20260502182517 | 48 | 322 | 1.0 | 6.0 | 0.00 | 0.00 | 0.00 | 59 | 1016.7 |
| 20260502181518 | 48 | 328 | 3.0 | 7.0 | 0.00 | 0.00 | 0.00 | 58 | 1016.7 |
| 20260502180518 | 48 | 330 | 3.0 | 8.0 | 0.00 | 0.00 | 0.00 | 58 | 1016.8 |
| 20260502170519 | 49 | 336 | 2.0 | 7.0 | 0.00 | 0.00 | 0.00 | 56 | 1016.8 |
| 20260502163519 | 47 | 317 | 3.0 | 8.0 | 0.00 | 0.00 | 0.00 | 60 | 1017.1 |
| 20260502162518 | 47 | 342 | 4.0 | 9.0 | 0.00 | 0.00 | 0.00 | 61 | 1017.2 |
| 20260502161518 | 48 | 337 | 3.0 | 9.0 | 0.00 | 0.00 | 0.00 | 59 | 1017.2 |
| 20260502160517 | 47 | 343 | 4.0 | 8.0 | 0.00 | 0.01 | 0.00 | 61 | 1017.3 |
| 20260502151518 | 47 | 343 | 3.0 | 7.0 | 0.00 | 0.06 | 0.00 | 62 | 1017.3 |
| 20260502150518 | 47 | 324 | 4.0 | 8.0 | 0.00 | 0.06 | 0.00 | 61 | 1017.3 |
| 20260502130518 | 38 | 333 | 3.0 | 9.0 | 0.00 | 0.12 | 0.00 | 83 | 1017.7 |
| 20260502123518 | 36 | 345 | 3.0 | 8.0 | 0.00 | 0.12 | 0.00 | 94 | 1017.6 |
| 20260502122518 | 35 | 354 | 4.0 | 8.0 | 0.00 | 0.13 | 0.00 | 98 | 1017.5 |
| 20260502121518 | 34 | 358 | 3.0 | 5.0 | 0.00 | 0.13 | 0.00 | 99 | 1017.5 |
| 20260502120518 | 34 | 349 | 3.0 | 7.0 | 0.00 | 0.13 | 0.00 | 99 | 1017.4 |
| 20260502115518 | 34 | 7 | 3.0 | 8.0 | 0.00 | 0.13 | 0.00 | 99 | 1017.3 |
| 20260502114518 | 34 | 14 | 3.0 | 4.0 | 0.00 | 0.13 | 0.00 | 99 | 1017.3 |
| 20260502113519 | 32 | 11 | 3.0 | 3.0 | 0.00 | 0.13 | 0.00 | 99 | 1017.4 |
| 20260502112519 | 30 | 4 | 2.0 | 3.0 | 0.00 | 0.13 | 0.00 | 99 | 1017.4 |
| 20260502111522 | 30 | 8 | 3.0 | 3.0 | 0.00 | 0.13 | 0.00 | 99 | 1017.4 |
| 20260502110520 | 30 | 6 | 3.0 | 3.0 | 0.00 | 0.13 | 0.00 | 99 | 1017.3 |
| 20260502105519 | 29 | 5 | 3.0 | 3.0 | 0.00 | 0.13 | 0.00 | 99 | 1017.3 |
| 20260502104519 | 29 | 7 | 2.0 | 3.0 | 0.00 | 0.13 | 0.00 | 99 | 1017.2 |
| 20260502103516 | 29 | 4 | 3.0 | 3.0 | 0.00 | 0.13 | 0.00 | 99 | 1017.2 |
| 20260502102518 | 29 | 4 | 3.0 | 3.0 | 0.00 | 0.13 | 0.00 | 99 | 1017.3 |
| 20260502101518 | 29 | 7 | 2.0 | 3.0 | 0.00 | 0.13 | 0.00 | 99 | 1017.2 |
| 20260502100520 | 30 | 6 | 3.0 | 3.0 | 0.00 | 0.13 | 0.00 | 99 | 1017.2 |
| 20260502091518 | 30 | 8 | 2.0 | 3.0 | 0.00 | 0.13 | 0.00 | 99 | 1017.3 |
| 20260502090518 | 31 | 4 | 2.0 | 3.0 | 0.00 | 0.13 | 0.00 | 99 | 1017.2 |
| 20260502071520 | 33 | 4 | 3.0 | 3.0 | 0.00 | 0.13 | 0.00 | 99 | 1016.9 |
| 20260502070517 | 33 | 8 | 2.0 | 3.0 | 0.00 | 0.13 | 0.00 | 99 | 1017.0 |
| 20260502065517 | 33 | 18 | 2.0 | 3.0 | 0.00 | 0.13 | 0.00 | 99 | 1017.1 |
| 20260502064519 | 34 | 13 | 2.0 | 3.0 | 0.00 | 0.13 | 0.00 | 99 | 1017.2 |
| 20260502063520 | 34 | 22 | 2.0 | 3.0 | 0.00 | 0.13 | 0.00 | 99 | 1017.1 |
| 20260502062518 | 35 | 60 | 1.0 | 2.0 | 0.00 | 0.13 | 0.00 | 99 | 1017.1 |
| 20260502061518 | 35 | 132 | 1.0 | 3.0 | 0.00 | 0.13 | 0.00 | 99 | 1017.3 |
| 20260502060518 | 35 | 16 | 2.0 | 4.0 | 0.00 | 0.13 | 0.00 | 98 | 1017.3 |
| 20260502055518 | 35 | 30 | 2.0 | 3.0 | 0.00 | 0.13 | 0.00 | 98 | 1017.3 |
| 20260502054518 | 35 | 20 | 2.0 | 3.0 | 0.00 | 0.13 | 0.00 | 98 | 1017.4 |
| 20260502053518 | 35 | 10 | 2.0 | 3.0 | 0.00 | 0.13 | 0.00 | 98 | 1017.4 |
| 20260502052520 | 36 | 15 | 2.0 | 3.0 | 0.00 | 0.13 | 0.00 | 98 | 1017.3 |
| 20260502051519 | 36 | 43 | 2.0 | 3.0 | 0.00 | 0.13 | 0.00 | 98 | 1017.3 |
| 20260502050520 | 36 | 32 | 2.0 | 3.0 | 0.00 | 0.13 | 0.00 | 98 | 1017.3 |
| 20260502045519 | 36 | 4 | 2.0 | 3.0 | 0.00 | 0.13 | 0.00 | 97 | 1017.2 |
| 20260502044516 | 37 | 127 | 1.0 | 3.0 | 0.00 | 0.13 | 0.00 | 97 | 1017.2 |
| 20260502043517 | 36 | 71 | 1.0 | 3.0 | 0.00 | 0.13 | 0.00 | 97 | 1017.2 |
| 20260502042519 | 36 | 16 | 2.0 | 3.0 | 0.00 | 0.13 | 0.00 | 97 | 1017.2 |
| 20260502041521 | 37 | 29 | 2.0 | 3.0 | 0.00 | 0.13 | 0.00 | 96 | 1017.3 |
| 20260502040517 | 37 | 26 | 3.0 | 3.0 | 0.00 | 0.13 | 0.00 | 96 | 1017.2 |
| 20260502035517 | 37 | 183 | 1.0 | 2.0 | 0.00 | 0.13 | 0.13 | 96 | 1017.2 |
| 20260502034517 | 37 | 31 | 2.0 | 3.0 | 0.00 | 0.13 | 0.13 | 95 | 1017.1 |
| 20260502033521 | 38 | 31 | 2.0 | 4.0 | 0.00 | 0.13 | 0.13 | 95 | 1017.2 |
| 20260502032518 | 38 | 39 | 2.0 | 3.0 | 0.00 | 0.13 | 0.13 | 94 | 1017.3 |
| 20260502031518 | 39 | 131 | 1.0 | 3.0 | 0.00 | 0.13 | 0.13 | 93 | 1017.3 |
| 20260502030518 | 39 | 23 | 2.0 | 3.0 | 0.00 | 0.13 | 0.13 | 93 | 1017.4 |
| 20260502025519 | 40 | 188 | 1.0 | 2.0 | 0.00 | 0.13 | 0.13 | 92 | 1017.3 |
| 20260502024519 | 40 | 1 | 2.0 | 3.0 | 0.00 | 0.13 | 0.13 | 91 | 1017.2 |
| 20260502023518 | 41 | 43 | 2.0 | 3.0 | 0.00 | 0.13 | 0.13 | 90 | 1017.1 |
| 20260502022518 | 41 | 345 | 0.0 | 2.0 | 0.00 | 0.13 | 0.13 | 88 | 1017.0 |
| 20260502021518 | 42 | 0.0 | 0.0 | 0.00 | 0.13 | 0.13 | 87 | 1016.9 | |
| 20260502020518 | 43 | 0.0 | 0.0 | 0.00 | 0.13 | 0.13 | 87 | 1016.8 | |
| 20260502015519 | 44 | 0.0 | 0.0 | 0.00 | 0.13 | 0.13 | 86 | 1016.7 | |
| 20260502014519 | 44 | 137 | 0.0 | 2.0 | 0.00 | 0.13 | 0.13 | 86 | 1016.6 |
| 20260502013516 | 44 | 3 | 1.0 | 3.0 | 0.00 | 0.13 | 0.13 | 84 | 1016.5 |
| 20260502012519 | 45 | 40 | 1.0 | 4.0 | 0.00 | 0.13 | 0.13 | 84 | 1016.2 |
| 20260502011522 | 45 | 1 | 1.0 | 6.0 | 0.00 | 0.13 | 0.13 | 83 | 1015.8 |
| 20260502010520 | 45 | 27 | 1.0 | 5.0 | 0.00 | 0.13 | 0.13 | 83 | 1015.5 |
| 20260502005517 | 45 | 348 | 1.0 | 5.0 | 0.00 | 0.13 | 0.13 | 83 | 1015.6 |
| 20260502004517 | 45 | 0.0 | 0.0 | 0.00 | 0.13 | 0.13 | 82 | 1015.5 | |
| 20260502003517 | 46 | 44 | 1.0 | 3.0 | 0.00 | 0.13 | 0.13 | 80 | 1015.5 |
| 20260502002518 | 46 | 97 | 1.0 | 2.0 | 0.00 | 0.13 | 0.13 | 78 | 1015.5 |
| 20260502001522 | 47 | 360 | 1.0 | 3.0 | 0.00 | 0.13 | 0.13 | 77 | 1015.4 |
| 20260502000518 | 47 | 356 | 2.0 | 4.0 | 0.00 | 0.13 | 0.13 | 77 | 1015.2 |
| 20260501235518 | 48 | 358 | 2.0 | 4.0 | 0.00 | 0.13 | 0.13 | 75 | 1015.0 |
| 20260501234518 | 48 | 354 | 0.0 | 3.0 | 0.00 | 0.13 | 0.13 | 76 | 1014.8 |
| 20260501233518 | 48 | 6 | 1.0 | 3.0 | 0.00 | 0.13 | 0.13 | 76 | 1014.8 |
| 20260501232518 | 48 | 12 | 1.0 | 3.0 | 0.00 | 0.13 | 0.13 | 75 | 1014.7 |
| 20260501231518 | 48 | 343 | 1.0 | 5.0 | 0.00 | 0.13 | 0.13 | 75 | 1014.6 |
| 20260501230520 | 48 | 337 | 2.0 | 5.0 | 0.00 | 0.13 | 0.13 | 74 | 1014.6 |
| 20260501225519 | 49 | 342 | 1.0 | 3.0 | 0.00 | 0.13 | 0.13 | 75 | 1014.6 |
| 20260501224524 | 49 | 326 | 2.0 | 5.0 | 0.00 | 0.13 | 0.13 | 74 | 1014.6 |
| 20260501223520 | 50 | 313 | 1.0 | 5.0 | 0.00 | 0.13 | 0.13 | 74 | 1014.5 |
| 20260501222519 | 50 | 303 | 1.0 | 3.0 | 0.00 | 0.13 | 0.13 | 74 | 1014.5 |
| 20260501221517 | 49 | 327 | 2.0 | 6.0 | 0.00 | 0.13 | 0.13 | 77 | 1014.6 |
| 20260501220518 | 49 | 335 | 2.0 | 6.0 | 0.00 | 0.13 | 0.13 | 78 | 1014.9 |
| 20260501215521 | 48 | 332 | 2.0 | 7.0 | 0.00 | 0.13 | 0.13 | 79 | 1014.9 |
| 20260501214522 | 47 | 341 | 4.0 | 10.0 | 0.00 | 0.13 | 0.13 | 80 | 1015.0 |
| 20260501213518 | 48 | 323 | 5.0 | 9.0 | 0.00 | 0.13 | 0.13 | 78 | 1014.7 |
| 20260501212520 | 48 | 320 | 3.0 | 9.0 | 0.00 | 0.13 | 0.13 | 78 | 1014.4 |
| 20260501211520 | 47 | 337 | 3.0 | 10.0 | 0.00 | 0.13 | 0.13 | 79 | 1014.2 |
| 20260501210518 | 47 | 333 | 4.0 | 9.0 | 0.00 | 0.13 | 0.13 | 79 | 1014.0 |